Location: Wawayanda State Park
(41.1833°N, 74.4333°W)
Time: 12:33:02
(UTC-04:00)

RESURS DK-1 - Visible Passes

Search period start: 30 May 2015 00:00
Search period end: 09 June 2015 00:00
Orbit: 560 x 564 km, 69.9° (Epoch: 30 May)

Date Brightness Start Highest point End Pass type
(mag) Time Alt. Az. Time Alt. Az. Time Alt. Az.
30 May 4.3 00:06:23 21° W 00:07:47 25° NW 00:11:14 10° N visible
30 May 2.8 22:28:48 39° ESE 22:28:52 39° ESE 22:32:45 10° NE visible
31 May 4.8 00:04:41 12° W 00:07:11 19° NW 00:10:10 10° N visible
31 May 2.4 22:26:55 40° SSE 22:28:05 55° ESE 22:32:08 10° NNE visible
01 Jun 5.2 00:04:08 10° W 00:06:36 15° NW 00:08:56 10° NNW visible
01 Jun 2.2 22:24:44 22° SSW 22:27:18 79° ESE 22:31:27 10° NNE visible
02 Jun 5.4 00:04:35 10° WNW 00:06:03 11° NW 00:07:20 10° NNW visible
02 Jun 2.5 22:22:25 10° SSW 22:26:33 74° WNW 22:30:42 10° NNE visible
03 Jun 3.2 22:21:47 10° SW 22:25:50 52° WNW 22:29:54 10° NNE visible
04 Jun 3.9 22:21:16 10° SW 22:25:08 38° WNW 22:29:01 10° N visible
05 Jun 4.5 22:20:51 10° WSW 22:24:28 28° WNW 22:28:04 10° N visible
06 Jun 5.1 22:20:35 10° WSW 22:23:51 21° NW 22:27:03 10° N visible
07 Jun 5.5 22:20:31 10° W 22:23:14 17° NW 22:25:53 10° NNW visible
08 Jun 5.8 22:20:43 10° WNW 22:22:41 13° NW 22:24:30 10° NNW visible
